| time (UTC) | temp C | wind direction | speed KPH | gust KPH | rain 1hr cm | rain 24hr cm | rain mn cm | humidity % | barometer mb |
| 20260509210059 | 27 | 138 | 1.6 | 3.2 | 0.00 | 0.00 | 0.00 | 94 | 1011.0 |
| 20260509204600 | 27 | 138 | 1.6 | 3.2 | 0.00 | 0.00 | 0.00 | 93 | 1011.0 |
| 20260509203059 | 27 | 138 | 1.6 | 3.2 | 0.00 | 0.00 | 0.00 | 94 | 1011.0 |
| 20260509201600 | 27 | 177 | 0.0 | 1.6 | 0.00 | 0.00 | 0.00 | 91 | 1011.0 |
| 20260509200100 | 27 | 177 | 0.0 | 1.6 | 0.00 | 0.00 | 0.00 | 94 | 1011.0 |
| 20260509194559 | 27 | 177 | 0.0 | 1.6 | 0.00 | 0.00 | 0.00 | 93 | 1011.0 |
| 20260509193100 | 27 | 177 | 0.0 | 1.6 | 0.00 | 0.00 | 0.00 | 94 | 1011.0 |
| 20260509191600 | 28 | 297 | 0.0 | 1.6 | 0.00 | 0.00 | 0.00 | 91 | 1011.0 |
| 20260509190100 | 28 | 297 | 0.0 | 1.6 | 0.00 | 0.00 | 0.00 | 94 | 1011.0 |
| 20260509184600 | 28 | 297 | 0.0 | 1.6 | 0.00 | 0.00 | 0.00 | 94 | 1011.0 |
| 20260509183100 | 28 | 297 | 0.0 | 1.6 | 0.00 | 0.00 | 0.00 | 95 | 1011.0 |
| 20260509181600 | 28 | 286 | 1.6 | 1.6 | 0.00 | 0.00 | 0.00 | 93 | 1012.0 |
| 20260509180101 | 28 | 286 | 1.6 | 1.6 | 0.00 | 0.00 | 0.00 | 93 | 1012.0 |
| 20260509174559 | 28 | 286 | 1.6 | 1.6 | 0.00 | 0.00 | 0.00 | 93 | 1012.0 |
| 20260509173100 | 28 | 346 | 0.0 | 3.2 | 0.00 | 0.00 | 0.00 | 94 | 1012.0 |
| 20260509171600 | 28 | 256 | 1.6 | 1.6 | 0.00 | 0.00 | 0.00 | 91 | 1012.0 |
| 20260509170059 | 28 | 256 | 1.6 | 1.6 | 0.00 | 0.00 | 0.00 | 93 | 1012.0 |
| 20260509164600 | 28 | 256 | 1.6 | 1.6 | 0.00 | 0.00 | 0.00 | 95 | 1012.0 |
| 20260509163059 | 28 | 256 | 1.6 | 1.6 | 0.00 | 0.00 | 0.00 | 94 | 1012.0 |
| 20260509161600 | 28 | 288 | 3.2 | 1.6 | 0.00 | 0.00 | 0.00 | 90 | 1012.0 |
| 20260509160059 | 28 | 288 | 3.2 | 1.6 | 0.00 | 0.00 | 0.00 | 94 | 1012.0 |
| 20260509154600 | 28 | 288 | 3.2 | 1.6 | 0.00 | 0.00 | 0.00 | 93 | 1012.0 |
| 20260509153100 | 28 | 288 | 3.2 | 1.6 | 0.00 | 0.00 | 0.00 | 94 | 1012.0 |
| 20260509151600 | 28 | 278 | 3.2 | 1.6 | 0.00 | 0.00 | 0.00 | 91 | 1012.0 |
| 20260509150100 | 28 | 278 | 3.2 | 1.6 | 0.00 | 0.00 | 0.00 | 94 | 1012.0 |
| 20260509144559 | 28 | 278 | 3.2 | 1.6 | 0.00 | 0.00 | 0.00 | 93 | 1012.0 |
| 20260509143059 | 28 | 278 | 3.2 | 1.6 | 0.00 | 0.00 | 0.00 | 93 | 1012.0 |
| 20260509141600 | 29 | 270 | 1.6 | 1.6 | 0.00 | 0.00 | 0.00 | 90 | 1012.0 |
| 20260509140059 | 29 | 270 | 1.6 | 1.6 | 0.00 | 0.00 | 0.00 | 92 | 1012.0 |
| 20260509134559 | 29 | 270 | 1.6 | 1.6 | 0.00 | 0.00 | 0.00 | 92 | 1012.0 |
| 20260509133100 | 29 | 270 | 1.6 | 1.6 | 0.00 | 0.00 | 0.00 | 93 | 1012.0 |
| 20260509131600 | 29 | 209 | 1.6 | 3.2 | 0.00 | 0.00 | 0.00 | 89 | 1012.0 |
| 20260509130059 | 30 | 209 | 1.6 | 3.2 | 0.00 | 0.00 | 0.00 | 92 | 1012.0 |
| 20260509124600 | 30 | 209 | 1.6 | 3.2 | 0.00 | 0.00 | 0.00 | 92 | 1012.0 |
| 20260509123100 | 30 | 209 | 1.6 | 3.2 | 0.00 | 0.00 | 0.00 | 92 | 1012.0 |
| 20260509121559 | 30 | 181 | 3.2 | 6.4 | 0.00 | 0.00 | 0.00 | 90 | 1011.0 |
| 20260509120100 | 30 | 181 | 3.2 | 6.4 | 0.00 | 0.00 | 0.00 | 90 | 1011.0 |
| 20260509114559 | 30 | 181 | 3.2 | 6.4 | 0.00 | 0.00 | 0.00 | 90 | 1011.0 |
| 20260509113100 | 30 | 190 | 1.6 | 4.8 | 0.00 | 0.00 | 0.00 | 92 | 1011.0 |
| 20260509111600 | 30 | 200 | 1.6 | 4.8 | 0.00 | 0.00 | 0.00 | 87 | 1010.0 |
| 20260509110100 | 30 | 200 | 1.6 | 4.8 | 0.00 | 0.00 | 0.00 | 91 | 1010.0 |
| 20260509104600 | 30 | 200 | 1.6 | 4.8 | 0.00 | 0.00 | 0.00 | 90 | 1010.0 |
| 20260509103059 | 30 | 200 | 1.6 | 4.8 | 0.00 | 0.00 | 0.00 | 90 | 1010.0 |
| 20260509101600 | 30 | 182 | 4.8 | 8.0 | 0.00 | 0.00 | 0.00 | 85 | 1010.0 |
| 20260509100059 | 30 | 182 | 4.8 | 8.0 | 0.00 | 0.00 | 0.00 | 86 | 1010.0 |
| 20260509094600 | 31 | 182 | 4.8 | 8.0 | 0.00 | 0.00 | 0.00 | 85 | 1010.0 |
| 20260509093100 | 27 | 227 | 1.6 | 1.6 | 0.00 | 0.00 | 0.00 | 74 | 1010.0 |
| 20260509091600 | 27 | 227 | 1.6 | 1.6 | 0.00 | 0.00 | 0.00 | 74 | 1009.0 |
| 20260509090100 | 27 | 227 | 1.6 | 1.6 | 0.00 | 0.00 | 0.00 | 74 | 1009.0 |
| 20260509084559 | 27 | 227 | 1.6 | 1.6 | 0.00 | 0.00 | 0.00 | 74 | 1009.0 |
| 20260509083100 | 27 | 227 | 1.6 | 1.6 | 0.00 | 0.00 | 0.00 | 74 | 1009.0 |
| 20260509081600 | 27 | 227 | 1.6 | 1.6 | 0.00 | 0.00 | 0.00 | 74 | 1009.0 |
| 20260509080100 | 27 | 227 | 1.6 | 1.6 | 0.00 | 0.00 | 0.00 | 74 | 1009.0 |
| 20260509074600 | 27 | 227 | 1.6 | 1.6 | 0.00 | 0.00 | 0.00 | 74 | 1009.0 |
| 20260509073107 | 27 | 227 | 1.6 | 1.6 | 0.00 | 0.00 | 0.00 | 74 | 1009.0 |
| 20260509071600 | 27 | 227 | 1.6 | 1.6 | 0.00 | 0.00 | 0.00 | 74 | 1009.0 |
| 20260509070100 | 27 | 227 | 1.6 | 1.6 | 0.00 | 0.00 | 0.00 | 74 | 1009.0 |
| 20260509064600 | 27 | 227 | 1.6 | 1.6 | 0.00 | 0.00 | 0.00 | 74 | 1009.0 |
| 20260509063100 | 27 | 227 | 1.6 | 1.6 | 0.00 | 0.00 | 0.00 | 74 | 1009.0 |
| 20260509061600 | 27 | 227 | 1.6 | 1.6 | 0.00 | 0.00 | 0.00 | 74 | 1010.0 |
| 20260509060100 | 27 | 227 | 1.6 | 1.6 | 0.00 | 0.00 | 0.00 | 74 | 1010.0 |
| 20260509054600 | 27 | 227 | 1.6 | 1.6 | 0.00 | 0.00 | 0.00 | 74 | 1010.0 |
| 20260509053100 | 27 | 227 | 1.6 | 1.6 | 0.00 | 0.00 | 0.00 | 74 | 1010.0 |
| 20260509051600 | 27 | 227 | 1.6 | 1.6 | 0.00 | 0.00 | 0.00 | 74 | 1010.0 |
| 20260509050100 | 27 | 227 | 1.6 | 1.6 | 0.00 | 0.00 | 0.00 | 74 | 1010.0 |
| 20260509044600 | 27 | 227 | 1.6 | 1.6 | 0.00 | 0.00 | 0.00 | 74 | 1010.0 |
| 20260509043100 | 27 | 227 | 1.6 | 1.6 | 0.00 | 0.00 | 0.00 | 74 | 1010.0 |
| 20260509041600 | 27 | 227 | 1.6 | 1.6 | 0.00 | 0.00 | 0.00 | 74 | 1011.0 |
| 20260509034600 | 27 | 227 | 1.6 | 1.6 | 0.00 | 0.00 | 0.00 | 74 | 1011.0 |
| 20260509033101 | 27 | 227 | 1.6 | 1.6 | 0.00 | 0.00 | 0.00 | 74 | 1011.0 |
| 20260509031600 | 27 | 227 | 1.6 | 1.6 | 0.00 | 0.00 | 0.00 | 74 | 1012.0 |
| 20260509024600 | 27 | 227 | 1.6 | 1.6 | 0.00 | 0.00 | 0.00 | 76 | 1012.0 |
| 20260509023101 | 27 | 227 | 1.6 | 1.6 | 0.00 | 0.00 | 0.00 | 76 | 1012.0 |
| 20260509021601 | 26 | 227 | 1.6 | 1.6 | 0.00 | 0.00 | 0.00 | 76 | 1012.0 |
| 20260509020104 | 26 | 227 | 1.6 | 1.6 | 0.00 | 0.00 | 0.00 | 76 | 1012.0 |
| 20260509014601 | 26 | 227 | 1.6 | 1.6 | 0.00 | 0.00 | 0.00 | 77 | 1012.0 |
| 20260509013100 | 26 | 227 | 1.6 | 1.6 | 0.00 | 0.00 | 0.00 | 77 | 1012.0 |
| 20260509011600 | 26 | 227 | 1.6 | 1.6 | 0.00 | 0.00 | 0.00 | 77 | 1012.0 |
| 20260509004600 | 26 | 227 | 1.6 | 1.6 | 0.00 | 0.00 | 0.00 | 77 | 1012.0 |
| 20260509003102 | 26 | 227 | 1.6 | 1.6 | 0.00 | 0.00 | 0.00 | 77 | 1012.0 |
| 20260509001600 | 26 | 112 | 0.0 | 1.6 | 0.00 | 0.00 | 0.00 | 77 | 1011.0 |
| 20260509000103 | 26 | 112 | 0.0 | 1.6 | 0.00 | 0.00 | 0.00 | 77 | 1011.0 |
| 20260508234600 | 26 | 112 | 0.0 | 1.6 | 0.00 | 0.00 | 0.00 | 77 | 1011.0 |
| 20260508233101 | 27 | 131 | 0.0 | 1.6 | 0.00 | 0.00 | 0.00 | 86 | 1011.0 |
| 20260508231600 | 26 | 350 | 1.6 | 1.6 | 0.00 | 0.00 | 0.00 | 78 | 1011.0 |
| 20260508224600 | 26 | 350 | 1.6 | 1.6 | 0.00 | 0.00 | 0.00 | 78 | 1011.0 |
| 20260508223101 | 26 | 350 | 1.6 | 1.6 | 0.00 | 0.00 | 0.00 | 78 | 1011.0 |
| 20260508221600 | 26 | 355 | 0.0 | 1.6 | 0.00 | 0.00 | 0.00 | 78 | 1010.0 |
| 20260508214600 | 26 | 355 | 0.0 | 1.6 | 0.00 | 0.00 | 0.00 | 78 | 1010.0 |
| 20260508213101 | 26 | 355 | 0.0 | 1.6 | 0.00 | 0.00 | 0.00 | 78 | 1010.0 |
| 20260508211601 | 26 | 311 | 1.6 | 1.6 | 0.00 | 0.00 | 0.00 | 77 | 1010.0 |